Location: A�t Lahcen
(32.8243°N, 5.4246°W)
Time: 01:48:59
(UTC+00:00)

BREEZE M DEB (TANK) - Pass Details

Date: 27 January 2021
Orbit: 283 x 14500 km, 49.5° (Epoch: 27 February)

Event Time Altitude Azimuth Distance (km) Brightness Sun altitude
Exits shadow 06:09:23 15° 352° (N) 978 3.4 -15.0°
Drops below altitude 10° 06:10:38 10° 19° (NNE) 1,389 4.5 -14.7°
Sets 06:13:57 0° 43° (NE) 2,949 6.5 -14.0°
